KAITUO 1B               
1 40912U 15049P   20094.79883867  .00001266  00000-0  61564-4 0  9997
2 40912  97.4505 103.4786 0013246 236.0040 298.8621 15.20179248251371
TIANWANG 1C (TW-1C)     
1 40926U 15051B   20094.79981694  .00024215  00000-0  26711-3 0  9995
2 40926  97.0940 146.1906 0006378  26.9804  84.4001 15.63061903255353
TIANWANG 1A (TW-1A)     
1 40928U 15051D   20094.86654024  .00003477  00000-0  82723-4 0  9992
2 40928  97.1176 124.5013 0012589  97.3940  27.5471 15.42220717253871
LAPAN-A2                
1 40931U 15052B   20094.58009021  .00000695  00000-0  76241-5 0  9995
2 40931   5.9947 149.3568 0014022 299.0052  60.8684 14.76631345244175
E-ST@R-II               
1 41459U 16025D   20094.79814497  .00002075  00000-0  10716-3 0  9993
2 41459  98.0955 200.9443 0167169 102.9072 259.0875 15.06238672216201
AAUSAT 4                
1 41460U 16025E   20094.84836715  .00003470  00000-0  17187-3 0  9997
2 41460  98.0933 203.0680 0155686  92.5729 269.3368 15.08466986216394
NUSAT-1 (FRESCO)        
1 41557U 16033B   20094.85195646  .00001242  00000-0  48317-4 0  9990
2 41557  97.4025 185.5765 0013369 359.3536   0.7684 15.27851217214386
BEESAT-4                
1 41619U 16040W   20094.83312000  .00001525  00000-0  66077-4 0  9997
2 41619  97.3278 156.1087 0012874  84.4285 275.8420 15.23816471198037
CAS-2T & KS-1Q          
1 41847U 16066G   20094.75933912  .00000083  00000-0  22029-4 0  9997
2 41847  98.6640 144.4846 0366852  91.5043 272.8191 14.38052646178681
NAYIF-1 (EO-88)         
1 42017U 17008BX  20094.74991935  .00001594  00000-0  64247-4 0  9998
2 42017  97.3664 163.3865 0005235 212.1754 147.9166 15.26280761174150
MAX VALIER SAT          
1 42778U 17036P   20094.88016823  .00000936  00000-0  43326-4 0  9996
2 42778  97.3140 150.5477 0010487 286.5554  73.4531 15.22484129154380
RADFXSAT (FOX-1B)       
1 43017U 17073E   20094.76083077  .00000576  00000-0  50864-4 0  9991
2 43017  97.7253   9.8704 0255893 293.8820  63.5771 14.78868360128126
FOX-1D (AO-92)          
1 43137U 18004AC  20094.83271238  .00001033  00000-0  45623-4 0  9991
2 43137  97.4515 166.4832 0008099 326.8402  33.2327 15.23977040123680
ES'HAIL 2               
1 43700U 18090A   20094.75118730  .00000133  00000-0  00000+0 0  9995
2 43700   0.0130 137.9792 0002384 261.3538  89.4210  1.00272783  5204
FOX-1CLIFF (AO-95)      
1 43770U 18099N   20094.74486539  .00000684  00000-0  67739-4 0  9993
2 43770  97.7113 167.4089 0016180  87.7225 272.5848 14.94940338 72755
ITASAT 1                
1 43786U 18099AE  20094.82580307  .00000484  00000-0  49085-4 0  9999
2 43786  97.7129 167.8543 0016824  81.4687 278.8440 14.95288444 72780
JY1SAT (JO-97)          
1 43803U 18099AX  20094.84890008 -.00000075  00000-0 -15905-5 0  9996
2 43803  97.7087 167.7145 0016612  81.7101 278.6003 14.95453333 72783
PSAT2 (NO-104)          
1 44354U 19036R   20094.48351428  .00014145  00000-0  21043-3 0  9997
2 44354  28.5320 152.5368 0369743 231.0074 125.7030 15.02021208 42534
BRICSAT2 (NO-103)       
1 44355U 19036S   20094.40239484  .00029692  00000-0  43124-3 0  9994
2 44355  28.5322 147.9846 0353486 238.4061 118.1566 15.06088303 42566
JAISAT-1                
1 44419U 19038F   20094.87458796  .00000987  00000-0  59919-4 0  9993
2 44419  97.5306  57.3878 0022592  31.5408 328.7171 15.12656755 41325
DUCHIFAT-3              
1 44854U 19089C   20094.62571833  .00000443  00000-0  42279-4 0  9991
2 44854  36.9662 180.5503 0007005 183.0122 177.0591 14.99011904 17062
ORBITAL FACTORY 2 (OF-2)
1 45113U 19071C   20094.85316586  .00001241  00000-0  49874-4 0  9993
2 45113  51.6446   3.8470 0013479 146.3445 213.8395 15.33061312  9684
HUSKYSAT-1              
1 45119U 19071J   20094.77757887  .00001386  00000-0  53961-4 0  9995
2 45119  51.6441   4.0930 0012785 142.2993 217.8888 15.33302083  9663
